Location: Taupo
(38.6830°S, 176.0830°E)
Time: 14:07:20
(UTC+12:00)

Cosmos 2263 Rocket - Pass Details

Date: 24 January 2019
Orbit: 825 x 847 km, 71.0° (Epoch: 22 April)

Event Time Altitude Azimuth Distance (km) Brightness Sun altitude
Rises 23:21:49 0° 219° (SW) 3,415 6.7 -25.0°
Reaches altitude 10° 23:24:51 10° 234° (SW) 2,476 5.5 -25.3°
Maximum altitude 23:28:54 20° 280° (W) 1,844 4.1 -25.8°
Enters shadow 23:31:19 16° 311° (NW) 2,085 4.1 -26.0°
